TimeMST,TemperatureF,Dew PointF,Humidity,Sea Level PressureIn,VisibilityMPH,Wind Direction,Wind SpeedMPH,Gust SpeedMPH,PrecipitationIn,Events,Conditions,WindDirDegrees,DateUTC
12:53 AM,-0.0,-4.0,83,30.42,8.0,Calm,Calm,-,N/A,,Clear,0,2013-01-18 07:53:00
1:53 AM,-2.0,-6.0,83,30.42,8.0,SW,3.5,-,N/A,,Clear,230,2013-01-18 08:53:00
2:53 AM,-2.9,-7.1,82,30.42,10.0,North,4.6,-,N/A,,Clear,350,2013-01-18 09:53:00
3:53 AM,-4.0,-7.1,87,30.40,10.0,WSW,3.5,-,N/A,,Clear,240,2013-01-18 10:53:00
4:53 AM,-2.0,-6.0,83,30.39,9.0,Calm,Calm,-,N/A,,Clear,0,2013-01-18 11:53:00
5:53 AM,-5.1,-9.0,83,30.38,10.0,Calm,Calm,-,N/A,,Clear,0,2013-01-18 12:53:00
6:53 AM,-4.0,-8.0,83,30.40,9.0,Calm,Calm,-,N/A,,Clear,0,2013-01-18 13:53:00
7:53 AM,-5.1,-8.0,87,30.40,9.0,Calm,Calm,-,N/A,,Clear,0,2013-01-18 14:53:00
8:16 AM,-5.8,-7.6,92,30.12,10.0,SW,3.5,-,N/A,,Partly Cloudy,220,2013-01-18 15:16:00
8:53 AM,-2.0,-2.9,96,30.40,10.0,Calm,Calm,-,N/A,,Clear,0,2013-01-18 15:53:00
9:53 AM,5.0,-0.0,80,30.38,10.0,Calm,Calm,-,N/A,,Clear,0,2013-01-18 16:53:00
10:53 AM,8.1,3.0,80,30.36,10.0,NW,3.5,-,N/A,,Clear,320,2013-01-18 17:53:00
11:53 AM,14.0,7.0,74,30.32,10.0,Calm,Calm,-,N/A,,Clear,0,2013-01-18 18:53:00
12:53 PM,19.9,10.0,65,30.26,10.0,Calm,Calm,-,N/A,,Clear,0,2013-01-18 19:53:00
1:53 PM,23.0,12.9,65,30.24,10.0,Calm,Calm,-,N/A,,Clear,0,2013-01-18 20:53:00
2:53 PM,21.9,14.0,72,30.23,10.0,WNW,4.6,-,N/A,,Clear,290,2013-01-18 21:53:00
3:53 PM,21.0,14.0,74,30.24,10.0,NE,4.6,-,N/A,,Clear,40,2013-01-18 22:53:00
4:53 PM,19.0,12.9,77,30.22,10.0,Calm,Calm,-,N/A,,Clear,0,2013-01-18 23:53:00
5:53 PM,16.0,10.9,81,30.25,10.0,WNW,3.5,-,N/A,,Clear,290,2013-01-19 00:53:00
6:53 PM,16.0,10.9,81,30.25,10.0,Calm,Calm,-,N/A,,Clear,0,2013-01-19 01:53:00
7:53 PM,17.1,12.9,84,30.24,10.0,SSE,3.5,-,N/A,,Clear,160,2013-01-19 02:53:00
8:53 PM,16.0,12.0,84,30.26,10.0,North,8.1,-,N/A,,Clear,350,2013-01-19 03:53:00
9:53 PM,19.0,12.9,77,30.24,10.0,Calm,Calm,-,N/A,,Mostly Cloudy,0,2013-01-19 04:53:00
11:53 PM,10.9,8.1,88,30.27,10.0,Calm,Calm,-,N/A,,Clear,0,2013-01-19 06:53:00